Regional Weather Roundup
Issued by NWS

Home | Current Version | Previous Version | Graphics & Text | Print | Product List | Glossary Off
Versions: 1 2 3 4 5 6 7 8 9 10 11 12 13 14 15 16 17 18 19 20 21 22 23 24 25 26 27 28 29 30 31 32 33 34 35 36 37 38 39 40 41 42 43 44 45 46 47 48 49 50

425
ASUS43 KMKX 080021
RWRWI

WISCONSIN REGIONAL WEATHER ROUNDUP
NATIONAL WEATHER SERVICE MILWAUKEE/SULLIVAN WI
600 PM CST WED DEC 07 2016

NOTE: "FAIR" INDICATES FEW OR NO CLOUDS BELOW 12,000 FEET WITH NO
SIGNIFICANT WEATHER AND/OR OBSTRUCTIONS TO VISIBILITY.

WIZ001-002-006>008-014>016-023>028-080100-
NORTHWEST WISCONSIN

CITY           SKY/WX    TMP DP  RH WIND       PRES   REMARKS
SUPERIOR ARPT  CLOUDY    19  14  80 W15G23    29.94S WCI   5
6HR MIN TEMP:  19; 6HR MAX TEMP:  22;

ASHLAND        LGT SNOW  19  13  77 W17G25    29.90R WCI   4
6HR MIN TEMP:  19; 6HR MAX TEMP:  21; 6HR PCP: TRACE;

HAYWARD        FLURRIES  18   9  68 W10G23    29.93R WCI   6
6HR MIN TEMP:  17; 6HR MAX TEMP:  19; 6HR PCP: TRACE;

SIREN          FLURRIES  18  10  69 W13G22    30.00R WCI   5
6HR MIN TEMP:  18; 6HR MAX TEMP:  21;

CUMBERLAND     FLURRIES  18   9  68 W21G28    29.97S WCI   1
RICE LAKE      CLOUDY    19  11  73 SW15G24   30.00S WCI   4
6HR MIN TEMP:  19; 6HR MAX TEMP:  21;

CHETEK         CLOUDY    18  10  72 W9G16     30.00S WCI   6
6HR MIN TEMP:  18; 6HR MAX TEMP:  22;

LADYSMITH      CLOUDY    19  12  73 W12G21    29.96S WCI   7
6HR MIN TEMP:  19; 6HR MAX TEMP:  22;

EAU CLAIRE     CLOUDY    19  11  70 W17       30.03S WCI   4
6HR MIN TEMP:  19; 6HR MAX TEMP:  20; 6HR PCP: TRACE;

MENOMONIE      MOCLDY    19  12  72 W18       30.04S WCI   4
6HR MIN TEMP:  19; 6HR MAX TEMP:  23;

NEW RICHMOND   FLURRIES  17   9  70 W18       30.04S WCI   1
6HR MIN TEMP:  17; 6HR MAX TEMP:  21;

OSCEOLA        CLOUDY    18   9  66 W23G31    30.09R WCI   0
6HR MIN TEMP:  18; 6HR MAX TEMP:  23;

$$

WIZ003>005-009-010-017-018-080100-
NORTH CENTRAL WISCONSIN

CITY           SKY/WX    TMP DP  RH WIND       PRES   REMARKS
MANITOWISH WTR LGT SNOW  16  13  86 W14G21    29.83S WCI   2
6HR MIN TEMP:  16; 6HR MAX TEMP:  17;

ARBOR VITAE    LGT SNOW  19  15  84 W10       29.84S WCI   8
6HR MIN TEMP:  19; 6HR MAX TEMP:  19;

WOODRUFF       LGT SNOW  19  15  84 W10       29.84S WCI   8
6HR MIN TEMP:  19; 6HR MAX TEMP:  19;

RHINELANDER    CLOUDY    19  12  74 W23G30    29.86R WCI   2
6HR MIN TEMP:  18; 6HR MAX TEMP:  20; 6HR PCP: TRACE;

EAGLE RIVER    LGT SNOW  18  11  76 W18       29.82S WCI   2
6HR MIN TEMP:  17; 6HR MAX TEMP:  19;

LAND O LAKES   FLURRIES  17  12  78 W9G16     29.83R WCI   6
6HR MIN TEMP:  17; 6HR MAX TEMP:  19;

PHILLIPS       CLOUDY    17  11  78 W12G20    29.89R WCI   4
6HR MIN TEMP:  17; 6HR MAX TEMP:  19;

TOMAHAWK       FLURRIES  17  11  75 W8G16     29.89S WCI   7
6HR MIN TEMP:  17; 6HR MAX TEMP:  19;

MEDFORD        FLURRIES  17  10  74 W13       29.93R WCI   4
6HR MIN TEMP:  17; 6HR MAX TEMP:  18;

MERRILL        CLOUDY    19  12  74 W18       29.92S WCI   3
6HR MIN TEMP:  19; 6HR MAX TEMP:  20;

$$

WIZ029-030-035-036-043>047-080100-
CENTRAL WISCONSIN

CITY           SKY/WX    TMP DP  RH WIND       PRES   REMARKS
WAUSAU         CLOUDY    19  12  74 W16G30    29.94R WCI   4
6HR MIN TEMP:  19; 6HR MAX TEMP:  20; 6HR PCP: TRACE;

MOSINEE        CLOUDY    19  14  79 W18G29    29.96R WCI   4
MARSHFIELD     CLOUDY    18  11  74 W14       29.97R WCI   4
6HR MIN TEMP:  18; 6HR MAX TEMP:  20; 6HR PCP: TRACE;

STEVENS POINT  CLOUDY    19  11  71 W14G24    29.98S WCI   5
6HR MIN TEMP:  19; 6HR MAX TEMP:  22;

WAUPACA        CLOUDY    24  15  68 W15G22    30.01R WCI  11
6HR MIN TEMP:  24; 6HR MAX TEMP:  28;

WAUTOMA        FLURRIES  21  14  74 W16G22    30.03R WCI   7
6HR MIN TEMP:  21; 6HR MAX TEMP:  23; 6HR PCP:  0.01;

WISC RAPIDS    CLOUDY    20  12  71 W10G25    30.02R WCI   9
6HR MIN TEMP:  20; 6HR MAX TEMP:  23;

CAMP DOUGLAS   FLURRIES  19  12  73 W16       30.06R WCI   5
                                      6HR PCP: TRACE;

$$

WIZ011>013-019>022-031-037>040-048>050-080100-
NORTHEAST WISCONSIN

CITY           SKY/WX    TMP DP  RH WIND       PRES   REMARKS
ANTIGO         FLURRIES  17  13  82 W18G24    29.88S WCI   1
6HR MIN TEMP:  17; 6HR MAX TEMP:  18;

SHAWANO        CLOUDY    24  13  63 W16G22    29.96R WCI  11
OCONTO         CLOUDY    23  12  62 W20G26    29.94S WCI   8
6HR MIN TEMP:  23; 6HR MAX TEMP:  27;

STURGEON BAY   CLOUDY    25  16  68 W13       29.93R WCI  14
6HR MIN TEMP:  25; 6HR MAX TEMP:  27; 6HR PCP:  0.01;

GREEN BAY      CLOUDY    26  15  63 W20G28    29.97R WCI  12
6HR MIN TEMP:  25; 6HR MAX TEMP:  29;

MANITOWOC      CLOUDY    24  16  71 W12G22    29.99R WCI  13
6HR MIN TEMP:  24; 6HR MAX TEMP:  26;

APPLETON       FLURRIES  21  12  68 W18G28    29.97R WCI   6
CLINTONVILLE   CLOUDY    23  12  63 W14G24    29.97S WCI  11
OSHKOSH        CLOUDY    22  13  68 W10G23    30.00R WCI  11
6HR MIN TEMP:  22; 6HR MAX TEMP:  24;

$$

WIZ032>034-041-042-053>061-080100-
SOUTHWEST WISCONSIN

CITY           SKY/WX    TMP DP  RH WIND       PRES   REMARKS
LA CROSSE      CLOUDY    22  13  68 W13       30.12S WCI  10
6HR MIN TEMP:  22; 6HR MAX TEMP:  24; 6HR PCP: TRACE;

SPARTA         FLURRIES  20  13  73 W10G18    30.09R WCI   9
6HR MIN TEMP:  20; 6HR MAX TEMP:  22;

VIROQUA        CLOUDY    18  13  79 W13       30.07S WCI   5
6HR MIN TEMP:  17; 6HR MAX TEMP:  19;

BOSCOBEL       CLOUDY    23  13  65 W13G18    30.14S WCI  11
6HR MIN TEMP:  21; 6HR MAX TEMP:  24; 6HR PCP: TRACE;

PRAIRIE DU CHI CLOUDY    23  12  63 W9G17     30.15F WCI  13
6HR MIN TEMP:  19; 6HR MAX TEMP:  23;

PLATTEVILLE    CLOUDY    21  16  81 W14       30.13S WCI   8
6HR MIN TEMP:  20; 6HR MAX TEMP:  21;

$$

WIZ056-057-062-063-064-067-068-080100-
SOUTH CENTRAL WISCONSIN

CITY           SKY/WX    TMP DP  RH WIND       PRES   REMARKS
REEDSBURG      CLOUDY    19  12  73 W16G23    30.07S WCI   5
6HR MIN TEMP:  19; 6HR MAX TEMP:  22;

BARABOO/DELLS  FLURRIES  19  12  73 W15       30.06S WCI   5
6HR MIN TEMP:  19; 6HR MAX TEMP:  22;

LONE ROCK      CLOUDY    21  13  71 W14G24    30.12S WCI   8
6HR MIN TEMP:  20; 6HR MAX TEMP:  23;

MINERAL POINT  FLURRIES  21  18  86 W15       30.09S WCI   8
MADISON        CLOUDY    20  13  74 VRB6      30.08R WCI  12
6HR MIN TEMP:  20; 6HR MAX TEMP:  23;

MIDDLETON      CLOUDY    21  15  76 W15G22    30.09S WCI   8
WATERTOWN      CLOUDY    20  14  78 SW13      30.07R WCI   7
6HR MIN TEMP:  20; 6HR MAX TEMP:  23;

MONROE         CLOUDY    21  14  73 W22       30.10S WCI   5
JANESVILLE     CLOUDY    21  16  79 W15       30.11R WCI   8
$$

WIZ051-052-058>065-066-070>072-080100-
SOUTHEAST WISCONSIN

CITY           SKY/WX    TMP DP  RH WIND       PRES   REMARKS
MILWAUKEE      MOCLDY    24  14  65 W16G24    30.07R WCI  11
6HR MIN TEMP:  24; 6HR MAX TEMP:  29;

WAUKESHA       MOCLDY    19  12  73 W18G28    30.06R WCI   4
MILWAUKEE/TIMM CLEAR     21  12  68 SW15G24   30.06R WCI   8
RACINE         PTCLDY    22  13  68 W20G28    30.09R WCI   7
6HR MIN TEMP:  22; 6HR MAX TEMP:  29;

BURLINGTON     CLOUDY    21  15  76 W18       30.09S WCI   6
6HR MIN TEMP:  21; 6HR MAX TEMP:  26;

KENOSHA        MOCLDY    23  15  71 W21G30    30.08R WCI   8
6HR MIN TEMP:  23; 6HR MAX TEMP:  28;

FOND DU LAC    CLOUDY    22  11  62 W15G26    30.03R WCI   9
6HR MIN TEMP:  22; 6HR MAX TEMP:  24;

SHEBOYGAN      CLOUDY    22  13  68 W15G25    30.01R WCI   9
6HR MIN TEMP:  22; 6HR MAX TEMP:  25;

WEST BEND      PTCLDY    21  16  79 W15G26    30.02S WCI   8
JUNEAU         CLOUDY    20  14  76 SW17G24   30.06R WCI   5
6HR MIN TEMP:  19; 6HR MAX TEMP:  21;

$$

LSZ147-162-080100-
LAKE SUPERIOR

STATION/POSITION TIME  TEMP    WIND        PRES    WAVE
                       AIR SEA DIR/SP/G            HT/PER
                 (UTC) (F)     (DEG/KT/KT) (MB)    (FT/S)
DEVILS ISLAND    0000   25     250/ 32/ 39 1011.2R
PORT WING        2340   22     230/ 15/ 21 1012.5S
SAXON HARBOR     2340   21     230/  8/ 17 1012.2S
$$

LMZ867-665-643>646-080100-
LAKE MICHIGAN

STATION/POSITION TIME  TEMP    WIND        PRES    WAVE
                       AIR SEA DIR/SP/G            HT/PER
                 (UTC) (F)     (DEG/KT/KT) (MB)    (FT/S)
CHAMBERS ISLAND  2340   24     240/ 14/ 27C1F1C2F2C3F3C4F4C5F5C6F6C7F7C8M1C9M2Ca!



USA.gov is the U.S. government's official web portal to all federal, state and local government web resources and services.